Temp
62 62 62 62 62 62 62 62 62 62 62 62 62 62 61 61 60 51 46 55 59 66 64 56 55 54 57 54 57 60 46 46 50 51 53 61 59 64 65 61 62 63 62 63 65
62 62 62 62 62 62 62 62 61 62 61 61 61 61 61 60 50 45 57 63 65 64 55 51 48 51 49 51 53 50 46 49 59 60 56 60 59 61 60 59 59 60 60 62 63
63 62 62 61 61 61 61 61 61 61 61 61 61 61 60 56 44 47 63 65 65 61 55 54 52 50 45 50 50 50 45 55 57 61 61 58 56 61 59 55 61 60 58 60 61
61 61 60 60 61 61 61 61 61 61 61 61 61 60 59 50 34 52 63 63 63 58 54 51 48 44 42 41 50 44 50 52 56 58 57 56 60 58 59 61 65 66 60 60 60
60 60 60 60 60 60 60 61 61 60 60 61 60 59 50 40 42 55 60 58 55 54 50 48 44 43 38 42 44 43 48 52 55 53 57 56 56 56 56 63 64 61 59 60 61
59 59 59 59 59 60 60 60 60 60 60 60 60 58 44 34 53 55 53 53 53 51 50 49 47 48 42 42 40 46 46 47 51 53 54 52 54 56 58 63 61 59 58 59 61
59 58 58 58 59 59 59 59 60 60 60 60 59 53 44 41 52 53 52 50 52 51 47 50 51 47 47 40 46 44 39 44 46 51 51 53 48 50 59 59 59 59 58 59 61
58 58 58 58 58 59 59 59 59 59 59 60 59 50 39 52 49 51 51 50 52 51 50 52 51 47 44 46 42 39 39 33 45 49 51 51 43 54 59 58 57 58 57 58 59
57 57 58 58 58 58 59 59 59 59 59 59 52 46 36 53 46 52 51 48 50 49 49 54 49 42 42 35 31 35 28 32 38 49 49 48 45 56 58 58 58 57 58 58 59
57 57 58 58 58 58 58 57 57 54 52 52 49 36 42 41 47 50 51 49 45 44 43 42 39 34 34 32 20 27 29 34 35 44 47 45 45 53 55 55 56 58 58 58 58
57 57 58 58 58 58 50 44 39 38 40 38 39 38 43 47 49 46 50 46 44 40 32 37 31 27 31 34 35 34 31 30 39 43 44 44 45 50 55 52 53 54 56 58 58
57 57 58 58 58 56 46 39 40 40 34 41 40 40 44 44 37 44 49 39 37 31 34 32 28 36 38 36 34 32 29 29 37 42 41 42 43 49 51 54 55 55 56 57 59
57 57 57 57 56 47 41 40 45 41 32 35 40 39 42 43 38 40 45 41 35 31 31 29 34 39 36 33 30 31 28 30 31 39 43 40 39 41 48 52 55 56 59 59 58
56 56 56 57 48 42 39 44 44 41 19 30 36 40 43 42 34 45 46 42 37 32 32 31 38 35 33 31 33 26 36 35 34 32 28 42 30 40 45 47 50 55 56 57 59
56 56 55 55 42 40 43 43 42 39 6 34 36 47 42 36 38 39 45 41 34 35 32 32 34 33 30 32 36 31 38 35 36 31 31 33 32 40 46 43 48 52 56 57 59
55 55 54 46 42 41 42 41 39 18 5 27 34 34 33 34 35 39 39 42 41 34 34 33 41 36 34 38 38 40 35 35 36 33 23 32 33 34 41 46 49 53 56 57 58
55 54 49 46 39 42 40 36 17 8 28 25 28 32 30 29 31 32 30 29 29 25 25 31 33 35 36 33 37 36 31 22 20 20 23 36 33 38 44 49 53 53 55 57 58
55 52 47 45 41 40 37 25 7 9 15 31 31 29 24 28 29 29 27 26 34 31 25 22 21 33 35 34 33 31 30 25 20 22 25 35 30 37 46 49 50 52 56 57 57
52 40 40 41 42 39 31 9 11 14 29 27 27 16 15 25 25 24 24 25 32 33 22 21 23 35 33 35 35 33 27 37 29 30 25 30 37 43 44 44 46 49 55 56 57
39 37 37 40 39 35 22 19 13 29 31 27 14 20 17 18 20 20 22 31 29 35 36 28 22 35 36 33 34 36 41 28 30 23 18 28 32 33 40 41 45 49 52 56 58
37 29 39 39 38 27 14 9 20 32 32 23 17 23 20 19 22 19 23 31 34 33 34 31 28 30 36 31 33 36 34 35 36 32 24 23 31 40 40 43 43 51 54 56 54
33 22 38 38 23 13 10 17 32 29 32 31 28 26 23 21 20 21 23 27 37 34 27 32 28 25 27 33 34 34 38 39 29 28 32 31 29 43 43 45 46 51 50 48 46
29 27 37 36 14 12 19 23 29 29 30 31 30 30 26 20 19 19 26 33 34 32 29 32 27 22 26 33 39 33 35 39 38 34 30 28 31 42 43 43 45 43 43 42 41
27 20 23 25 22 25 24 17 18 31 29 34 33 31 27 16 23 20 24 32 35 33 38 34 30 24 20 25 30 30 33 38 36 31 31 30 32 35 39 39 40 40 41 41 40
25 19 21 12 16 24 23 24 22 21 30 31 26 21 25 20 17 12 25 30 34 34 33 30 22 26 27 29 31 32 31 35 33 32 30 31 31 33 37 38 39 40 40 39 39
24 21 27 12 24 25 26 22 26 27 28 25 25 23 26 21 22 21 25 27 26 30 29 31 22 25 25 31 30 30 30 33 34 33 33 32 32 39 40 41 39 39 39 39 39
28 29 27 19 21 19 21 26 27 28 31 32 28 23 17 21 29 32 32 31 29 26 26 26 24 22 21 28 29 26 27 31 32 31 33 28 32 37 35 37 38 39 39 39 39
MSLP
1021.80 1021.95 1022.12 1021.90 1021.84 1021.55 1021.32 1021.16 1021.16 1020.97 1020.87 1020.77 1020.66 1020.33 1019.98 1019.72 1019.36 1019.22 1018.85 1018.14 1017.90 1017.26 1016.97 1017.20 1016.97 1016.91 1016.39 1016.05 1015.31 1014.66 1013.93 1011.86 1011.59 1011.74 1011.92 1011.52 1011.21 1010.88 1010.87 1011.20 1011.55 1011.56 1011.92 1012.18 1012.73
1021.52 1021.49 1021.75 1021.85 1021.74 1021.54 1021.30 1021.08 1021.03 1020.92 1020.81 1020.77 1020.52 1020.22 1020.00 1019.79 1019.53 1018.93 1018.16 1017.69 1017.48 1017.33 1017.29 1017.44 1017.36 1017.12 1016.73 1016.06 1015.18 1014.51 1012.86 1011.43 1011.52 1011.23 1011.22 1011.41 1011.39 1010.97 1011.05 1011.23 1011.57 1011.83 1012.34 1012.64 1012.89
1021.56 1021.25 1021.44 1021.60 1021.71 1021.50 1021.27 1021.16 1021.03 1020.86 1020.74 1020.67 1020.49 1020.18 1020.01 1019.89 1019.71 1018.30 1017.66 1017.51 1017.47 1017.46 1017.43 1017.42 1017.49 1017.51 1017.03 1016.36 1015.50 1013.99 1012.26 1012.14 1011.63 1011.23 1011.05 1011.11 1011.18 1011.00 1010.87 1011.03 1010.93 1011.13 1012.04 1012.81 1013.04
1021.43 1021.22 1021.42 1021.62 1021.69 1021.45 1021.38 1021.23 1020.94 1020.76 1020.67 1020.59 1020.39 1020.19 1019.97 1020.14 1019.65 1017.87 1017.63 1017.60 1017.54 1017.53 1017.51 1017.48 1017.55 1017.61 1017.27 1016.56 1015.66 1014.79 1013.42 1012.84 1012.10 1011.61 1011.41 1010.93 1010.79 1010.65 1010.58 1010.30 1010.26 1010.61 1011.27 1012.23 1012.66
1021.44 1021.53 1021.63 1021.63 1021.57 1021.45 1021.21 1020.98 1020.78 1020.69 1020.64 1020.45 1020.28 1020.19 1020.23 1020.37 1019.22 1017.86 1017.76 1017.71 1017.60 1017.62 1017.67 1017.71 1017.68 1017.57 1017.40 1016.72 1016.12 1014.88 1014.32 1013.35 1012.89 1012.40 1011.51 1011.12 1010.66 1010.50 1010.17 1009.99 1010.30 1010.44 1011.38 1011.85 1012.12
1021.68 1021.61 1021.68 1021.85 1021.75 1021.44 1021.25 1020.99 1020.69 1020.60 1020.56 1020.38 1020.23 1020.26 1020.54 1020.38 1018.02 1017.82 1017.90 1017.78 1017.73 1017.63 1017.59 1017.53 1017.40 1017.31 1017.23 1016.90 1016.51 1015.36 1014.87 1014.08 1013.35 1012.34 1011.74 1011.37 1010.89 1010.73 1009.91 1009.85 1010.28 1010.58 1011.05 1011.63 1011.77
1021.82 1022.00 1021.98 1021.96 1021.77 1021.51 1021.27 1021.00 1020.75 1020.52 1020.39 1020.26 1020.15 1020.25 1020.33 1019.22 1017.95 1017.79 1017.87 1017.58 1017.44 1017.49 1017.43 1017.23 1017.15 1017.31 1017.04 1016.85 1016.20 1015.82 1015.29 1014.26 1012.72 1012.69 1011.67 1011.34 1010.28 1009.17 1009.95 1009.73 1010.03 1010.21 1010.60 1011.24 1011.53
1022.07 1022.27 1022.18 1021.98 1021.80 1021.60 1021.32 1020.93 1020.51 1020.42 1020.24 1020.12 1020.08 1020.24 1019.56 1018.14 1018.05 1017.79 1017.36 1017.22 1017.00 1017.14 1017.31 1016.89 1016.92 1017.19 1017.10 1016.91 1016.43 1016.16 1015.37 1014.15 1012.41 1011.84 1011.80 1011.67 1007.99 1008.76 1009.36 1009.67 1009.79 1009.84 1010.23 1010.65 1011.12
1022.31 1022.32 1021.92 1021.97 1021.91 1021.60 1021.08 1020.49 1020.10 1020.12 1020.06 1020.01 1020.31 1020.40 1019.39 1018.13 1018.07 1017.22 1017.09 1017.08 1016.79 1016.78 1016.84 1016.70 1016.89 1017.03 1017.07 1017.24 1017.02 1016.20 1015.04 1013.91 1012.60 1011.63 1011.04 1010.22 1008.49 1008.49 1008.31 1008.78 1009.05 1009.40 1009.60 1009.96 1010.43
1022.50 1022.20 1021.89 1021.95 1021.82 1021.31 1020.73 1020.04 1019.91 1020.12 1020.42 1020.36 1020.60 1021.09 1019.13 1018.23 1017.76 1017.20 1016.59 1016.63 1016.84 1016.81 1016.90 1016.83 1016.94 1016.88 1016.84 1017.04 1016.40 1015.41 1014.93 1013.86 1012.53 1011.22 1010.74 1009.38 1008.79 1008.55 1008.24 1008.06 1008.21 1008.54 1008.72 1009.21 1009.64
1022.63 1022.37 1022.14 1022.06 1021.70 1021.18 1020.85 1020.46 1021.38 1021.26 1021.26 1020.92 1020.28 1019.81 1018.92 1018.21 1017.71 1016.79 1016.29 1016.39 1016.69 1017.01 1017.00 1016.70 1016.92 1016.44 1015.39 1015.83 1015.64 1015.64 1015.17 1014.16 1012.65 1011.65 1010.89 1009.17 1008.99 1008.03 1007.93 1007.85 1007.84 1007.91 1008.15 1008.39 1008.89
1022.66 1022.47 1022.45 1022.20 1021.66 1021.37 1021.54 1022.53 1023.63 1023.89 1022.02 1020.46 1020.07 1019.88 1018.88 1018.57 1017.96 1016.42 1016.17 1016.60 1016.85 1016.88 1017.02 1017.01 1016.01 1014.16 1014.90 1015.34 1015.46 1015.21 1014.73 1013.79 1012.85 1011.82 1011.34 1009.76 1008.34 1007.61 1007.18 1006.58 1006.94 1007.08 1007.30 1007.62 1008.15
1022.82 1022.63 1022.59 1022.23 1021.82 1022.16 1022.71 1023.29 1023.55 1023.67 1023.28 1020.40 1019.51 1019.13 1018.40 1018.53 1017.62 1016.04 1016.01 1016.10 1016.46 1016.55 1016.63 1016.08 1014.01 1014.35 1014.48 1014.42 1014.70 1014.14 1013.85 1013.34 1013.00 1011.82 1010.77 1009.98 1008.21 1007.81 1006.84 1006.52 1006.19 1006.20 1006.41 1006.81 1007.04
1022.80 1022.75 1022.58 1021.91 1022.16 1022.86 1023.10 1023.15 1023.21 1023.46 1023.44 1020.86 1019.39 1018.48 1018.22 1018.10 1017.26 1015.90 1015.50 1015.85 1015.82 1015.45 1015.46 1014.61 1013.11 1013.39 1013.46 1013.11 1013.43 1013.02 1012.12 1012.49 1012.39 1012.07 1010.61 1009.12 1007.22 1006.64 1005.95 1005.68 1005.29 1005.28 1005.49 1005.75 1006.24
1022.81 1022.77 1022.76 1021.94 1022.76 1023.31 1023.60 1023.05 1023.09 1023.59 1023.63 1021.23 1019.58 1018.35 1018.67 1018.85 1017.56 1015.73 1015.37 1015.39 1015.16 1014.68 1015.16 1012.45 1012.36 1012.27 1011.95 1011.02 1012.44 1010.92 1011.59 1011.58 1011.76 1011.61 1011.49 1009.08 1007.58 1004.89 1004.96 1004.48 1003.83 1004.01 1004.35 1004.73 1005.27
1022.97 1022.91 1022.74 1022.81 1023.14 1023.50 1023.28 1023.09 1023.54 1024.65 1023.76 1021.87 1020.56 1019.78 1019.50 1018.88 1017.99 1016.51 1015.77 1015.39 1014.56 1014.51 1013.68 1012.41 1010.65 1010.43 1009.94 1010.52 1010.89 1010.64 1011.29 1010.94 1011.11 1011.18 1010.35 1007.43 1006.97 1004.45 1003.26 1002.45 1002.79 1002.81 1003.09 1003.51 1004.20
1022.97 1022.97 1022.81 1023.08 1023.63 1023.25 1023.12 1023.66 1025.13 1025.53 1024.46 1023.30 1022.30 1021.56 1021.13 1020.26 1018.77 1017.72 1016.96 1016.12 1015.48 1014.53 1013.22 1010.92 1009.39 1008.72 1009.65 1009.82 1010.00 1010.53 1010.70 1010.05 1009.87 1010.14 1007.73 1005.40 1006.27 1003.36 1002.08 1001.44 1001.24 1001.24 1001.79 1002.43 1003.30
1023.00 1022.99 1023.20 1023.63 1023.64 1023.37 1023.63 1024.99 1026.51 1026.78 1025.84 1024.50 1023.73 1022.89 1022.51 1021.74 1019.87 1018.98 1018.00 1016.86 1015.83 1015.63 1014.08 1012.37 1009.61 1009.05 1008.27 1008.16 1008.23 1008.53 1009.00 1007.59 1008.00 1007.36 1005.78 1004.96 1003.70 1002.09 1001.58 1001.28 1001.03 1001.05 1001.35 1001.99 1002.58
1023.03 1023.54 1023.64 1023.77 1023.46 1023.48 1024.55 1026.39 1027.45 1027.20 1026.07 1025.23 1024.59 1024.30 1023.91 1023.02 1022.15 1020.38 1018.89 1017.62 1016.54 1015.98 1015.52 1013.26 1010.40 1008.61 1008.15 1007.73 1007.88 1007.69 1007.41 1005.28 1006.55 1005.60 1005.18 1004.15 1003.28 1001.89 1001.36 1001.23 1001.08 1000.97 1001.02 1001.37 1002.07
1023.65 1024.14 1024.15 1023.84 1023.54 1024.09 1025.80 1027.43 1027.25 1026.24 1025.67 1025.56 1026.00 1025.76 1025.36 1023.92 1022.87 1021.49 1019.75 1017.92 1017.03 1016.38 1015.69 1013.84 1010.76 1008.04 1007.17 1006.82 1006.77 1005.86 1005.87 1006.35 1006.36 1004.33 1004.27 1003.74 1003.20 1001.82 1001.55 1001.45 1000.91 1000.70 1000.67 1001.30 1002.05
1024.04 1024.58 1024.08 1023.93 1023.93 1025.22 1027.37 1027.88 1027.05 1025.82 1025.51 1025.52 1025.66 1025.61 1025.24 1024.68 1023.58 1022.20 1020.49 1018.69 1017.48 1016.13 1015.43 1013.91 1011.96 1008.43 1007.19 1006.52 1005.89 1005.05 1005.21 1004.88 1004.34 1004.07 1003.71 1003.19 1002.58 1002.39 1002.31 1001.99 1001.37 1000.56 1000.98 1001.54 1002.66
1024.71 1025.34 1024.37 1023.91 1025.61 1027.96 1028.84 1028.25 1027.13 1025.98 1025.33 1025.14 1025.28 1025.27 1025.11 1024.91 1023.94 1022.92 1021.03 1019.81 1018.10 1017.49 1015.82 1014.52 1012.58 1009.89 1008.16 1006.71 1006.22 1005.55 1004.39 1003.95 1004.02 1004.07 1003.67 1003.78 1003.24 1002.82 1002.47 1002.08 1001.79 1001.35 1002.09 1002.94 1004.08
1025.70 1025.85 1024.86 1024.82 1027.39 1028.98 1028.75 1028.10 1027.14 1026.12 1025.45 1025.11 1025.10 1025.02 1025.02 1024.94 1024.70 1022.96 1021.20 1019.09 1018.58 1017.83 1016.88 1015.55 1013.20 1011.06 1008.05 1006.99 1005.49 1006.01 1005.48 1004.46 1004.12 1003.90 1004.05 1004.19 1003.94 1003.47 1003.05 1002.38 1002.23 1002.64 1003.54 1004.66 1005.47
1026.29 1026.85 1026.87 1027.39 1028.89 1028.89 1028.99 1028.44 1027.28 1025.76 1025.31 1024.87 1024.88 1025.06 1025.08 1024.84 1024.65 1023.02 1021.47 1019.25 1018.63 1018.03 1017.19 1015.88 1014.53 1013.95 1012.66 1010.90 1009.53 1007.60 1006.01 1004.85 1004.47 1004.24 1004.55 1004.85 1004.80 1004.29 1003.82 1003.67 1003.77 1004.00 1004.81 1005.88 1006.69
1026.91 1028.50 1028.88 1029.56 1029.43 1029.03 1028.75 1028.05 1027.05 1026.05 1024.95 1024.62 1024.91 1025.33 1025.56 1025.03 1024.38 1023.40 1021.25 1019.60 1018.41 1018.05 1018.08 1017.20 1015.06 1013.92 1012.09 1010.74 1009.51 1008.25 1007.10 1005.83 1004.94 1005.54 1005.74 1005.94 1005.75 1005.47 1005.00 1004.91 1005.05 1005.46 1005.89 1006.67 1007.54
1026.87 1028.04 1029.15 1029.57 1029.33 1028.95 1028.38 1027.68 1026.69 1025.83 1025.53 1024.75 1024.96 1025.33 1025.63 1025.54 1025.01 1023.46 1022.68 1021.23 1020.05 1017.81 1017.65 1017.35 1015.83 1014.09 1011.77 1010.20 1009.31 1009.06 1007.45 1007.31 1007.09 1007.21 1007.03 1006.89 1006.60 1006.43 1006.20 1006.08 1006.30 1006.74 1007.14 1008.00 1008.65
1026.80 1027.35 1027.79 1029.37 1029.29 1029.15 1028.37 1027.32 1026.43 1026.12 1025.00 1024.74 1025.09 1025.35 1025.28 1024.77 1024.09 1023.58 1023.07 1022.37 1021.72 1020.45 1019.14 1018.27 1017.00 1014.94 1012.60 1010.78 1009.54 1009.35 1010.38 1009.57 1009.33 1009.19 1008.68 1008.32 1008.70 1007.97 1007.42 1007.26 1007.66 1008.11 1008.49 1009.02 1009.40
Wind_Speed
10 10 10 10 11 11 12 10 10 10 10 10 12 13 13 16 19 5 5 5 4 12 7 6 4 5 3 4 5 3 9 17 19 16 10 3 6 2 2 5 2 5 3 2 17
9 9 9 9 10 10 11 11 9 10 11 11 12 12 13 15 6 7 8 7 12 11 3 3 5 6 3 4 4 9 10 20 13 12 9 8 6 6 5 4 3 2 3 11 17
9 8 8 9 10 10 10 11 9 10 10 10 11 11 12 9 5 5 3 4 13 9 2 2 1 2 3 3 4 5 18 9 13 9 8 9 6 4 5 4 6 6 8 14 16
8 8 7 8 9 10 11 11 9 9 10 10 10 9 10 3 5 0 12 10 12 6 4 2 2 1 3 5 4 14 12 5 12 9 5 7 4 8 9 7 6 4 14 16 19
6 6 6 7 9 9 10 10 10 10 9 9 8 7 4 4 10 4 7 8 9 5 2 2 3 3 3 4 9 14 16 18 14 13 13 7 12 9 8 9 5 8 13 17 16
8 7 8 9 9 10 10 11 10 10 10 9 6 4 4 6 4 3 5 6 2 2 3 2 4 3 5 5 6 10 14 16 13 14 11 11 15 8 9 9 6 10 12 14 16
11 10 8 7 9 10 11 11 11 11 10 9 5 2 3 15 3 8 5 3 2 2 3 4 4 4 2 7 4 7 12 16 21 11 12 2 17 24 7 6 9 9 10 12 15
11 8 7 8 10 11 12 12 12 11 10 9 3 0 8 5 4 9 2 6 5 6 5 8 4 3 3 4 5 7 7 11 6 14 10 9 26 12 18 12 11 11 10 13 15
8 6 9 10 9 12 15 15 13 11 9 8 4 2 10 7 4 7 7 5 4 4 4 4 3 6 3 3 5 6 10 12 10 15 7 19 16 13 13 18 19 13 12 14 15
7 7 9 9 10 13 16 11 7 4 4 2 3 2 5 3 4 6 6 6 6 3 4 4 4 4 4 7 12 8 8 11 12 6 18 24 20 15 6 13 18 15 15 16 16
7 9 9 8 9 12 7 5 8 5 5 5 5 5 10 6 6 6 4 1 3 3 6 5 4 10 20 16 18 10 14 14 14 12 14 17 19 18 16 8 13 12 13 15 16
8 10 11 12 6 8 4 6 3 3 13 9 10 7 8 3 6 9 5 3 4 7 2 2 14 24 12 9 14 16 16 19 18 17 14 18 14 18 13 20 15 14 16 16 14
10 11 12 12 4 6 4 4 3 1 5 8 5 4 6 4 7 11 9 3 6 9 9 16 19 10 16 14 15 19 19 19 16 15 18 17 14 13 10 12 11 12 14 16 18
10 11 12 11 6 2 2 4 4 3 4 7 3 3 2 5 7 5 5 5 4 9 8 13 19 20 19 19 18 20 19 19 16 6 9 12 10 14 20 16 14 17 14 17 18
9 10 6 9 2 3 5 6 1 4 5 6 7 4 9 4 8 3 2 2 10 14 4 16 12 11 18 26 17 18 12 16 14 15 12 20 9 14 13 16 20 18 18 17 18
8 7 3 4 3 1 5 3 4 8 7 8 5 9 12 6 5 7 4 2 6 7 9 22 23 20 24 12 21 6 14 7 12 7 13 23 14 5 12 18 13 16 21 21 19
7 4 3 1 2 6 3 4 7 6 6 9 7 8 13 7 8 5 7 7 5 8 12 23 7 4 14 12 16 17 5 4 3 4 15 14 15 15 6 10 18 20 23 22 21
8 2 4 3 4 3 4 8 6 4 6 4 6 13 5 9 5 10 7 7 1 5 14 8 10 2 2 6 8 21 19 4 7 10 4 7 10 7 8 6 5 6 17 18 21
3 3 2 5 4 2 7 6 8 7 4 8 8 6 8 5 4 8 5 4 4 7 9 8 8 7 10 9 8 14 17 19 6 4 4 4 3 10 6 5 7 10 19 22 22
2 2 2 7 3 5 7 4 4 5 3 3 2 2 5 6 8 6 6 4 9 10 17 5 13 5 6 2 8 6 8 4 7 3 3 6 3 7 2 5 8 14 20 20 19
4 4 4 6 4 6 3 7 6 5 3 4 4 4 7 5 4 5 7 9 8 15 16 17 6 11 11 3 3 6 8 9 4 2 3 3 3 1 5 9 11 14 17 17 15
3 4 3 3 6 2 2 4 5 4 1 3 2 4 4 3 6 4 6 4 12 12 15 7 8 9 20 12 5 5 2 2 3 3 1 0 4 6 8 10 7 9 11 11 13
3 2 3 4 4 4 5 5 3 3 3 3 3 1 3 4 6 5 5 6 6 9 15 12 6 10 14 3 4 7 5 4 2 1 3 3 1 10 6 4 11 14 12 11 14
4 4 5 6 0 4 4 4 6 3 4 4 6 3 4 4 3 8 8 8 16 2 20 13 4 4 6 8 8 9 10 5 1 1 2 3 4 9 8 8 7 12 13 12 12
4 1 4 3 4 1 2 2 3 5 3 2 2 2 5 6 6 4 8 19 9 4 15 6 6 9 15 12 7 6 12 7 10 5 4 4 3 7 8 9 11 11 13 14 13
5 5 2 2 2 2 2 3 2 4 3 5 3 1 2 6 8 22 15 13 6 11 14 9 6 11 5 3 13 4 23 15 11 9 4 5 4 11 9 10 13 13 13 12 13
0 2 4 3 2 4 3 4 4 3 6 4 2 4 2 8 8 14 15 13 13 13 11 7 9 6 8 15 13 9 19 14 7 13 7 9 7 10 16 18 15 12 12 13 14
Wind_Direction
328 318 311 323 322 330 334 322 321 325 323 326 328 329 333 332 326 331 285 223 291 338 338 321 354 339 311 247 228 214 240 236 223 212 220 257 198 216 144 128 237 169 136 135 137
321 311 314 314 314 323 324 324 319 323 333 326 327 327 334 336 315 293 239 241 1 358 3 351 338 347 303 283 244 210 233 239 247 229 198 211 214 189 167 153 220 175 64 134 147
322 322 334 341 325 322 327 321 326 321 324 323 323 328 339 343 335 255 326 301 349 2 316 223 250 321 262 228 259 257 242 255 260 271 189 205 198 222 171 203 204 200 152 168 166
327 345 352 333 325 329 326 322 323 322 324 321 322 336 337 326 321 152 351 359 350 344 332 271 179 218 266 249 231 264 273 279 267 270 272 243 203 228 203 209 147 224 158 166 180
17 10 342 335 332 325 327 325 321 321 318 316 328 352 31 10 251 289 344 350 324 340 338 251 219 205 228 268 323 268 278 285 281 275 271 276 242 220 218 223 155 118 152 177 183
41 33 15 352 336 337 333 323 317 314 313 312 327 89 85 288 256 290 357 329 261 292 299 260 245 239 265 248 256 300 302 295 291 282 259 263 261 220 225 212 177 156 169 181 185
42 28 15 356 350 345 333 317 309 310 307 306 306 130 250 249 264 318 311 250 235 219 237 245 253 232 318 316 278 286 286 286 275 263 255 323 256 234 219 218 201 189 180 179 190
43 26 14 12 1 342 322 311 310 307 303 296 324 146 260 270 300 299 245 294 244 226 224 237 212 241 213 278 310 289 263 271 261 260 236 216 255 232 209 217 213 195 187 183 188
40 24 28 13 354 339 323 311 301 291 289 299 269 115 266 314 292 272 189 245 273 275 240 235 166 193 191 217 291 211 260 255 269 239 247 217 259 228 196 211 219 205 195 189 192
27 25 30 15 355 347 331 333 26 35 13 56 83 34 276 262 290 271 241 237 249 312 302 162 187 200 192 183 233 222 229 245 244 237 223 251 244 248 235 204 217 213 200 193 187
29 27 16 353 349 2 356 17 15 347 13 237 237 253 293 280 278 248 247 192 180 189 207 208 165 218 225 213 238 259 266 275 267 287 279 247 248 237 223 218 219 217 208 201 194
28 12 350 336 5 40 53 71 86 265 300 249 255 257 269 255 296 273 159 177 171 225 211 304 229 233 235 221 230 240 248 255 271 271 274 266 257 248 221 226 220 214 210 201 186
17 2 334 335 89 44 81 79 319 51 278 297 231 249 270 167 264 285 158 199 221 257 217 235 245 224 230 224 222 230 232 246 244 273 281 274 263 244 251 235 228 214 212 199 187
22 6 344 330 49 283 60 329 313 180 28 287 351 294 318 297 268 241 214 211 239 253 226 240 259 238 238 236 205 240 220 229 243 241 259 206 246 218 231 227 220 222 205 197 191
16 359 4 39 187 51 299 326 315 64 3 283 301 315 336 250 286 307 178 201 246 258 274 253 242 229 230 231 200 236 195 215 213 227 271 269 228 242 205 226 223 211 206 199 192
2 343 356 25 48 210 313 350 45 42 270 326 320 332 340 294 276 299 304 243 257 274 252 259 255 225 227 219 208 210 262 236 214 218 247 247 239 225 205 208 214 208 206 198 185
350 7 61 87 298 322 351 52 30 116 311 317 332 340 327 298 303 321 318 321 338 315 326 313 292 166 197 220 203 202 216 212 148 175 245 224 212 240 230 203 202 202 199 192 180
339 48 31 83 315 339 49 48 77 236 260 333 329 321 328 342 301 320 305 335 50 326 303 331 320 207 111 213 172 194 193 191 190 186 192 175 199 228 238 195 217 228 195 182 178
11 2 45 342 341 59 69 50 201 212 272 331 332 21 319 345 298 335 324 286 318 346 341 298 260 210 229 196 189 163 204 228 317 183 112 183 280 302 220 247 227 218 186 186 178
66 45 350 319 7 61 74 239 217 216 290 61 91 145 308 300 330 354 313 294 337 334 335 277 291 274 318 221 236 251 138 124 223 169 227 193 215 236 137 298 270 202 186 184 174
54 47 265 338 54 47 124 233 283 254 202 144 188 273 250 299 269 302 288 300 360 326 325 306 258 292 322 29 17 165 170 225 175 263 216 167 207 62 289 282 300 183 177 173 159
80 31 313 25 48 15 110 217 273 294 306 325 171 250 262 315 288 284 282 276 323 332 337 300 305 323 317 324 256 241 88 211 112 242 308 82 271 351 298 261 236 169 124 109 112
81 259 339 71 78 338 314 298 269 318 326 334 303 318 212 279 302 246 272 263 306 343 352 335 306 328 337 320 6 14 342 287 188 166 193 182 312 333 10 23 117 113 109 109 109
86 25 335 47 231 121 351 283 309 280 263 253 277 352 312 298 221 292 292 303 320 306 356 332 281 33 286 283 290 297 309 300 214 48 9 29 324 336 33 47 71 92 96 101 101
35 189 170 300 336 92 132 254 281 324 231 279 8 124 325 297 300 247 294 319 325 335 354 3 290 338 290 273 311 330 325 32 56 358 36 322 358 337 24 55 64 81 89 93 94
128 138 125 166 244 344 272 267 276 289 266 283 213 254 270 268 255 298 313 323 328 326 340 349 291 315 278 308 340 341 17 13 51 18 356 330 47 5 60 72 69 74 83 91 99
170 36 110 302 54 73 246 266 269 332 253 240 350 318 223 255 271 283 286 285 289 301 322 323 323 328 302 331 316 28 355 15 50 27 337 18 355 34 44 43 40 60 72 84 78